星链-37183(STARLINK-37183)

导读

STARLINK-37183(NORAD编号68349)是美国SpaceX公司星链星座的第二代低轨通信卫星,旨在为全球提供高速低延迟宽带互联网服务,支持流媒体、视频通话等多种应用。作为星链星座扩容的组成部分,它运行在约550公里高度的近地轨道,采用了第二代星链的多项先进技术,包括亮度抑制改进与激光链路配置。截止2026年4月,星链星座在轨活跃卫星已突破1万颗,该卫星目前正常运行,为星链全球网络覆盖提供支撑,助力实现偏远地区网络接入,推动卫星互联网普及。

Basic Information
目录编号:
68349
目录名称:
STARLINK-37183
国际标识:
2026-059AE
轨道中心:
EARTH
卫星名称:
星链-37183
卫星全名:
星链-37183(STARLINK-37183)
卫星状态:
在轨 (已飞行175 天)
发射日期:
2026-03-22 UTC
国别 :
美国 (US)
星等 :
--
This satellite is enrolled in the Space Conjunction Data Service (SCDS) and the current flight risk assessment level is: No High Risk
Orbit Information
数据来源 国际轨道数据
星历时间: 2026-09-13T08:48:10+0800
10小时前
查看轨道信息
半长轴: 6840.816km
偏心率: 0.0001794
轨道倾角: 53.161°
近地点辐角 66.271°
升交点赤经 196.305°
平近点角 293.848°
近地点: 461.451km
远地点: 463.907km
周期: 93.847分钟
每日圈数: 15.344082
Detailed Information
固有亮度:
5
最大亮度:
2.5
卫星平台:
Starlink V1.0
覆盖范围:
全球
运营商:
太空探索技术公司
运营商所在国:
美国
制造商(研发单位):
太空探索技术公司
制造商所在国:
美国
使用方式:
暂无
Satellite Introduction
Starlink 计划是 SpaceX 推出的全球卫星互联网项目,通过发射低轨道卫星,为全球尤其是偏远地区提供高速、低延迟的互联网服务。自 2019 年起,Starlink 已部署数千颗卫星,旨在缩小全球数字鸿沟,推动互联网普及。该项目还为军事、航空等行业提供通信支持,带来广泛经济效益。
2D Orbit Map
3D Orbit Map
Orbit Altitude Analysis Chart
Orbit Inclination Analysis Chart
Orbit Comprehensive Analysis Chart
View Comprehensive Chart
Conjunction Data List
Event ID Objects TCA Miss Dist (km) Collision Risk Probability Collision Risk Index (CRI) Action
CDM_260911-035706-834906-953121
2026-09-11T
03:57:06+0000
1.243 km
极远距离
7.422803E-6 低风险 0.52
CDM_260915-154704-740706-834921
2026-09-15T
15:47:11+0000
1.918 km
极远距离
1.659546E-6 低风险 0.39
CDM_260911-053006-834906-953121
2026-09-11T
05:30:53+0000
2.059 km
极远距离
1.649633E-6 低风险 0.39
CDM_260914-220405-339006-834921
2026-09-14T
22:04:00+0000
2.674 km
极远距离
1.391307E-6 低风险 0.38
CDM_260915-020905-327406-834921
2026-09-15T
02:09:18+0000
2.723 km
极远距离
1.33204E-6 低风险 0.37
CDM_260915-033305-318206-834921
2026-09-15T
03:33:44+0000
2.926 km
极远距离
1.234482E-6 低风险 0.37
CDM_260915-194104-740706-834921
2026-09-15T
19:41:40+0000
2.705 km
极远距离
8.487204E-7 极低风险 0.34
Miss Distance Evolution Trend with All Objects
Collision Probability Evolution Trend with All Objects